Tracking 30918 objects as of 2-Jul-2025
HD Live streaming from Space Station
objects crossing your sky now

STARLINK-32390

Track STARLINK-32390 now!
10-day predictions
STARLINK-32390 is classified as:


NORAD ID: 61630
Int'l Code: 2024-191K
Perigee: 489.3 km
Apogee: 491.1 km
Inclination: 43.0 °
Period: 94.3 minutes
Semi major axis: 6861 km
RCS: Unknown
Launch date: October 23, 2024
Source: United States (US)
Launch site: AIR FORCE EASTERN TEST RANGE (AFETR)
Your satellite tracking list
Your tracking list is empty




NASA's NSSDC Master Catalog

Two Line Element Set (TLE):
1 61630U 24191K   25182.21159896 -.00000502  00000-0 -87218-5 0  9992
2 61630  43.0022 134.9281 0001301 270.4486  89.6216 15.27576327 39721
Source of the keplerian elements: AFSPC